This is the latest recevied weather packets stored in our database for station/object KF4PPJ. If no packets are shown the sender has not sent any weather packets the latest 10 day(s).
| Time | Temp. | Humidity | Pressure | Rain* | Wind** | Luminosity | Snow |
|---|---|---|---|---|---|---|---|
| 1777760374 | 23.33° C | 50% | 1017.2 hPa | 0 mm | - | 514 W/m² | - |
| 1777760071 | 23.89° C | 51% | 1017.2 hPa | 0 mm | - | 615 W/m² | - |
| 1777759768 | 23.33° C | 55% | 1017 hPa | 0 mm | - | 652 W/m² | - |
| 1777759463 | 23.33° C | 52% | 1017 hPa | 0 mm | - | 631 W/m² | - |
| 1777759160 | 23.33° C | 52% | 1017.3 hPa | 0 mm | - | 534 W/m² | - |
| 1777758858 | 23.33° C | 52% | 1017.2 hPa | 0 mm | - | 531 W/m² | - |
| 1777758554 | 23.33° C | 53% | 1017.1 hPa | 0 mm | - | 573 W/m² | - |
| 1777758251 | 22.78° C | 54% | 1017.5 hPa | 0 mm | - | 331 W/m² | - |
| 1777757949 | 22.78° C | 53% | 1017.5 hPa | 0 mm | - | 575 W/m² | - |
| 1777757645 | 22.78° C | 54% | 1017.1 hPa | 0 mm | - | 563 W/m² | - |
| 1777757344 | 22.78° C | 53% | 1017.4 hPa | 0 mm | - | 578 W/m² | - |
| 1777757043 | 22.22° C | 55% | 1017.4 hPa | 0 mm | - | 609 W/m² | - |
| 1777756739 | 22.78° C | 53% | 1017.5 hPa | 0 mm | - | 580 W/m² | - |
| 1777756439 | 21.67° C | 56% | 1017.5 hPa | 0 mm | - | 548 W/m² | - |
| 1777756137 | 22.78° C | 55% | 1017.7 hPa | 0 mm | - | 501 W/m² | - |
| 1777755834 | 22.78° C | 54% | 1017.6 hPa | 0 mm | - | 552 W/m² | - |
| 1777755532 | 22.22° C | 55% | 1017.7 hPa | 0 mm | - | 638 W/m² | - |
| 1777755227 | 22.78° C | 55% | 1017.6 hPa | 0 mm | - | 635 W/m² | - |
| 1777754925 | 22.78° C | 53% | 1017.9 hPa | 0 mm | - | 672 W/m² | - |
| 1777754622 | 22.78° C | 54% | 1017.9 hPa | 0 mm | - | 634 W/m² | - |
| 1777754319 | 22.22° C | 56% | 1018 hPa | 0 mm | - | 691 W/m² | - |
| 1777754017 | 22.22° C | 56% | 1017.9 hPa | 0 mm | - | 694 W/m² | - |
| 1777753713 | 21.67° C | 56% | 1017.8 hPa | 0 mm | - | 665 W/m² | - |
| 1777753410 | 21.67° C | 56% | 1018.1 hPa | 0 mm | - | 649 W/m² | - |
| 1777753108 | 21.67° C | 57% | 1018.1 hPa | 0 mm | - | 596 W/m² | - |
* Rain latest hour (hover to see other rain measurements)
** Current wind speed in m/s (hover to see current wind gust speed)